Zurück zum Katalog

ONEWEB-0397

AktivKommunikationPO
NORAD 50477·PAYLOAD·🇬🇧 United Kingdom

Gestartet Dec 27, 2021 von Baikonur Cosmodrome

Loading…

Nächste Überflüge (nächste 24 Stunden)

TLE

AktuellSource: CelesTrak SupGP

Epoche: Sep 14, 2026, 14:07 UTC

1 50477C 21132J   26257.58870787  .00003243  00000+0  82359-2 0  2571
2 50477  87.9163 317.6956 0002211 100.9501  11.8677 13.18681045    16

Verfolge ONEWEB-0397 in Echtzeit mit AllMySat

Download on the App Store